Time,TemperatureF,DewpointF,PressureIn,WindDirection,WindDirectionDegrees,WindSpeedMPH,WindSpeedGustMPH,Humidity,HourlyPrecipIn,Conditions,Clouds,dailyrainin,SolarRadiationWatts/m^2,SoftwareType,DateUTC
2013-01-12 00:02:00,62.1,62.0,30.18,SSW,210,2.0,4.0,98,0.00,,,0.01,0,weatherlink.com 1.10,2013-01-12 05:02:00,
2013-01-12 00:17:00,62.5,62.0,30.17,SSW,207,2.0,5.0,98,0.00,,,0.01,0,weatherlink.com 1.10,2013-01-12 05:17:00,
2013-01-12 00:32:00,61.9,61.0,30.17,South,174,2.0,5.0,98,0.00,,,0.01,0,weatherlink.com 1.10,2013-01-12 05:32:00,
2013-01-12 00:47:00,61.3,61.0,30.18,West,270,0.0,0.0,98,0.00,,,0.01,0,weatherlink.com 1.10,2013-01-12 05:47:00,
2013-01-12 01:02:00,62.2,62.0,30.17,South,169,5.0,7.0,99,0.00,,,0.01,0,weatherlink.com 1.10,2013-01-12 06:02:00,
2013-01-12 01:17:00,61.4,61.0,30.17,SSE,168,4.0,5.0,98,0.00,,,0.01,0,weatherlink.com 1.10,2013-01-12 06:17:00,
2013-01-12 01:32:00,60.6,60.0,30.17,South,170,2.0,5.0,98,0.00,,,0.01,0,weatherlink.com 1.10,2013-01-12 06:32:00,
2013-01-12 01:47:00,61.0,61.0,30.17,South,170,0.0,2.0,99,0.00,,,0.00,0,weatherlink.com 1.10,2013-01-12 06:47:00,
2013-01-12 02:02:00,61.9,62.0,30.17,South,172,0.0,3.0,99,0.00,,,0.00,0,weatherlink.com 1.10,2013-01-12 07:02:00,
2013-01-12 02:17:00,61.9,61.0,30.17,SW,214,0.0,2.0,98,0.00,,,0.00,0,weatherlink.com 1.10,2013-01-12 07:17:00,
2013-01-12 02:32:00,62.2,62.0,30.17,SSW,211,0.0,3.0,99,0.00,,,0.00,0,weatherlink.com 1.10,2013-01-12 07:32:00,
2013-01-12 02:47:00,63.2,63.0,30.17,SW,224,1.0,8.0,99,0.00,,,0.00,0,weatherlink.com 1.10,2013-01-12 07:47:00,
2013-01-12 03:02:00,62.9,63.0,30.17,SSW,202,3.0,6.0,99,0.00,,,0.00,0,weatherlink.com 1.10,2013-01-12 08:02:00,
2013-01-12 03:17:00,63.0,63.0,30.17,SW,233,3.0,7.0,99,0.00,,,0.00,0,weatherlink.com 1.10,2013-01-12 08:17:00,
2013-01-12 03:32:00,62.2,62.0,30.16,SSW,209,4.0,6.0,98,0.00,,,0.00,0,weatherlink.com 1.10,2013-01-12 08:32:00,
2013-01-12 03:47:00,60.8,60.0,30.16,South,178,5.0,6.0,98,0.00,,,0.00,0,weatherlink.com 1.10,2013-01-12 08:47:00,
2013-01-12 04:02:00,59.7,59.0,30.16,South,174,4.0,6.0,98,0.00,,,0.00,0,weatherlink.com 1.10,2013-01-12 09:02:00,
2013-01-12 04:17:00,58.9,58.0,30.15,SSE,168,5.0,6.0,98,0.00,,,0.00,0,weatherlink.com 1.10,2013-01-12 09:17:00,
2013-01-12 04:32:00,58.5,58.0,30.15,South,177,4.0,7.0,98,0.00,,,0.00,0,weatherlink.com 1.10,2013-01-12 09:32:00,
2013-01-12 04:47:00,57.8,57.0,30.15,South,174,4.0,5.0,98,0.00,,,0.00,0,weatherlink.com 1.10,2013-01-12 09:47:00,
2013-01-12 05:02:00,57.4,57.0,30.14,SSE,168,6.0,6.0,98,0.00,,,0.00,0,weatherlink.com 1.10,2013-01-12 10:02:00,
2013-01-12 05:17:00,57.3,57.0,30.14,South,178,3.0,5.0,99,0.00,,,0.00,0,weatherlink.com 1.10,2013-01-12 10:17:00,
2013-01-12 05:32:00,57.3,57.0,30.15,SSE,168,4.0,5.0,99,0.00,,,0.00,0,weatherlink.com 1.10,2013-01-12 10:32:00,
2013-01-12 05:47:00,57.3,57.0,30.15,South,169,4.0,5.0,99,0.00,,,0.00,0,weatherlink.com 1.10,2013-01-12 10:47:00,
2013-01-12 06:02:00,57.6,57.0,30.15,South,169,3.0,5.0,99,0.00,,,0.00,0,weatherlink.com 1.10,2013-01-12 11:02:00,
2013-01-12 06:17:00,57.9,58.0,30.16,SSE,167,4.0,4.0,99,0.00,,,0.00,0,weatherlink.com 1.10,2013-01-12 11:17:00,
2013-01-12 06:32:00,58.2,58.0,30.16,SSE,162,5.0,5.0,99,0.00,,,0.00,0,weatherlink.com 1.10,2013-01-12 11:32:00,
2013-01-12 06:47:00,58.0,58.0,30.16,South,172,0.0,3.0,99,0.00,,,0.00,0,weatherlink.com 1.10,2013-01-12 11:47:00,
2013-01-12 07:02:00,57.7,58.0,30.17,South,172,0.0,0.0,99,0.00,,,0.00,0,weatherlink.com 1.10,2013-01-12 12:02:00,
2013-01-12 07:17:00,58.2,58.0,30.17,South,172,0.0,0.0,99,0.00,,,0.00,0,weatherlink.com 1.10,2013-01-12 12:17:00,
2013-01-12 07:32:00,58.9,59.0,30.18,South,173,0.0,0.0,99,0.00,,,0.00,11,weatherlink.com 1.10,2013-01-12 12:32:00,
2013-01-12 07:47:00,58.5,58.0,30.18,South,170,0.0,0.0,99,0.00,,,0.00,23,weatherlink.com 1.10,2013-01-12 12:47:00,
2013-01-12 08:03:00,58.7,59.0,30.18,SSE,166,0.0,0.0,99,0.00,,,0.00,56,weatherlink.com 1.10,2013-01-12 13:03:00,
2013-01-12 08:18:00,58.7,59.0,30.18,SSE,167,4.0,5.0,99,0.00,,,0.00,100,weatherlink.com 1.10,2013-01-12 13:18:00,
2013-01-12 08:33:00,58.7,59.0,30.18,South,174,5.0,6.0,99,0.00,,,0.00,144,weatherlink.com 1.10,2013-01-12 13:33:00,
2013-01-12 08:48:00,58.3,58.0,30.19,South,171,5.0,6.0,98,0.00,,,0.00,172,weatherlink.com 1.10,2013-01-12 13:48:00,
2013-01-12 09:03:00,58.2,58.0,30.19,South,172,4.0,5.0,98,0.00,,,0.00,216,weatherlink.com 1.10,2013-01-12 14:03:00,
2013-01-12 09:18:00,58.7,59.0,30.20,South,172,2.0,4.0,99,0.00,,,0.00,258,weatherlink.com 1.10,2013-01-12 14:18:00,
2013-01-12 09:33:00,59.5,59.0,30.20,South,178,2.0,4.0,99,0.00,,,0.00,294,weatherlink.com 1.10,2013-01-12 14:33:00,
2013-01-12 09:48:00,60.4,60.0,30.20,South,178,3.0,3.0,99,0.00,,,0.00,334,weatherlink.com 1.10,2013-01-12 14:48:00,
2013-01-12 10:03:00,61.6,61.0,30.20,South,178,4.0,5.0,99,0.00,,,0.00,367,weatherlink.com 1.10,2013-01-12 15:03:00,
2013-01-12 10:18:00,61.7,61.0,30.19,South,184,6.0,6.0,98,0.00,,,0.00,399,weatherlink.com 1.10,2013-01-12 15:18:00,
2013-01-12 10:33:00,61.2,61.0,30.19,South,172,7.0,7.0,98,0.00,,,0.00,427,weatherlink.com 1.10,2013-01-12 15:33:00,
2013-01-12 10:48:00,60.4,60.0,30.19,SSE,160,6.0,7.0,98,0.00,,,0.00,452,weatherlink.com 1.10,2013-01-12 15:48:00,
2013-01-12 11:03:00,60.5,60.0,30.19,SSE,158,5.0,7.0,98,0.00,,,0.00,476,weatherlink.com 1.10,2013-01-12 16:03:00,
2013-01-12 11:18:00,62.2,62.0,30.18,SSE,166,7.0,7.0,98,0.00,,,0.00,496,weatherlink.com 1.10,2013-01-12 16:18:00,
2013-01-12 11:33:00,62.1,61.0,30.17,SSE,165,7.0,8.0,97,0.00,,,0.00,513,weatherlink.com 1.10,2013-01-12 16:33:00,
2013-01-12 11:48:00,61.2,60.0,30.16,SSE,166,7.0,9.0,97,0.00,,,0.00,520,weatherlink.com 1.10,2013-01-12 16:48:00,
2013-01-12 12:04:00,60.5,60.0,30.16,SSE,164,8.0,9.0,97,0.00,,,0.00,531,weatherlink.com 1.10,2013-01-12 17:04:00,
2013-01-12 12:19:00,60.5,60.0,30.16,SSE,161,8.0,9.0,97,0.00,,,0.00,536,weatherlink.com 1.10,2013-01-12 17:19:00,
2013-01-12 12:34:00,60.9,60.0,30.15,SSE,162,8.0,9.0,98,0.00,,,0.00,533,weatherlink.com 1.10,2013-01-12 17:34:00,
2013-01-12 12:49:00,62.3,62.0,30.15,SSE,161,6.0,8.0,98,0.00,,,0.00,534,weatherlink.com 1.10,2013-01-12 17:49:00,
2013-01-12 13:04:00,64.0,63.0,30.14,SSE,166,5.0,6.0,97,0.00,,,0.00,527,weatherlink.com 1.10,2013-01-12 18:04:00,
2013-01-12 13:19:00,66.2,65.0,30.14,South,176,5.0,6.0,94,0.00,,,0.00,519,weatherlink.com 1.10,2013-01-12 18:19:00,
2013-01-12 13:34:00,66.8,64.0,30.14,South,176,6.0,7.0,91,0.00,,,0.00,504,weatherlink.com 1.10,2013-01-12 18:34:00,
2013-01-12 13:49:00,64.2,62.0,30.13,SSE,166,8.0,10.0,92,0.00,,,0.00,485,weatherlink.com 1.10,2013-01-12 18:49:00,
2013-01-12 14:04:00,63.9,62.0,30.13,SSE,162,8.0,9.0,93,0.00,,,0.00,466,weatherlink.com 1.10,2013-01-12 19:04:00,
2013-01-12 14:19:00,64.4,63.0,30.13,SSE,162,7.0,8.0,94,0.00,,,0.00,441,weatherlink.com 1.10,2013-01-12 19:19:00,
2013-01-12 14:34:00,64.5,63.0,30.12,SSE,165,9.0,9.0,93,0.00,,,0.00,415,weatherlink.com 1.10,2013-01-12 19:34:00,
2013-01-12 14:49:00,65.0,64.0,30.12,SSE,160,6.0,8.0,95,0.00,,,0.00,387,weatherlink.com 1.10,2013-01-12 19:49:00,
2013-01-12 15:04:00,64.9,63.0,30.12,SSE,163,7.0,8.0,93,0.00,,,0.00,357,weatherlink.com 1.10,2013-01-12 20:04:00,
2013-01-12 15:19:00,64.9,63.0,30.12,SSE,165,6.0,8.0,94,0.00,,,0.00,322,weatherlink.com 1.10,2013-01-12 20:19:00,
2013-01-12 15:34:00,65.3,63.0,30.12,SSE,154,6.0,7.0,93,0.00,,,0.00,283,weatherlink.com 1.10,2013-01-12 20:34:00,
2013-01-12 15:49:00,63.7,62.0,30.12,SSE,165,7.0,8.0,94,0.00,,,0.00,246,weatherlink.com 1.10,2013-01-12 20:49:00,
2013-01-12 16:04:00,64.0,63.0,30.12,SSE,167,6.0,7.0,95,0.00,,,0.00,206,weatherlink.com 1.10,2013-01-12 21:04:00,
2013-01-12 16:19:00,65.1,63.0,30.12,SSE,162,5.0,6.0,94,0.00,,,0.00,163,weatherlink.com 1.10,2013-01-12 21:19:00,
2013-01-12 16:34:00,64.2,63.0,30.13,SSE,166,5.0,6.0,94,0.00,,,0.00,118,weatherlink.com 1.10,2013-01-12 21:34:00,
2013-01-12 16:49:00,63.1,61.0,30.13,SSE,164,5.0,7.0,94,0.00,,,0.00,76,weatherlink.com 1.10,2013-01-12 21:49:00,
2013-01-12 17:04:00,61.4,60.0,30.13,SSE,168,5.0,7.0,96,0.00,,,0.00,37,weatherlink.com 1.10,2013-01-12 22:04:00,
2013-01-12 17:19:00,60.5,60.0,30.12,SSE,165,7.0,9.0,97,0.00,,,0.00,11,weatherlink.com 1.10,2013-01-12 22:19:00,
2013-01-12 17:34:00,60.2,59.0,30.12,South,173,6.0,8.0,97,0.00,,,0.00,0,weatherlink.com 1.10,2013-01-12 22:34:00,
2013-01-12 17:49:00,59.9,59.0,30.12,South,178,4.0,6.0,97,0.00,,,0.00,0,weatherlink.com 1.10,2013-01-12 22:49:00,
2013-01-12 18:04:00,59.9,59.0,30.12,South,179,1.0,3.0,97,0.00,,,0.00,0,weatherlink.com 1.10,2013-01-12 23:04:00,
2013-01-12 18:19:00,60.1,60.0,30.12,South,179,0.0,2.0,98,0.00,,,0.00,0,weatherlink.com 1.10,2013-01-12 23:19:00,
2013-01-12 18:34:00,60.4,60.0,30.12,South,179,0.0,0.0,98,0.00,,,0.00,0,weatherlink.com 1.10,2013-01-12 23:34:00,
2013-01-12 18:49:00,60.7,60.0,30.12,South,186,0.0,0.0,98,0.00,,,0.00,0,weatherlink.com 1.10,2013-01-12 23:49:00,
2013-01-12 19:04:00,61.1,61.0,30.12,SSW,206,0.0,2.0,98,0.00,,,0.00,0,weatherlink.com 1.10,2013-01-13 00:04:00,
2013-01-12 19:19:00,61.9,61.0,30.11,South,186,2.0,5.0,98,0.00,,,0.00,0,weatherlink.com 1.10,2013-01-13 00:19:00,
2013-01-12 19:34:00,61.7,61.0,30.11,South,177,4.0,5.0,98,0.00,,,0.00,0,weatherlink.com 1.10,2013-01-13 00:34:00,
2013-01-12 19:49:00,61.4,61.0,30.11,South,171,4.0,5.0,98,0.00,,,0.00,0,weatherlink.com 1.10,2013-01-13 00:49:00,
2013-01-12 20:04:00,61.5,61.0,30.11,SSE,166,6.0,7.0,98,0.00,,,0.00,0,weatherlink.com 1.10,2013-01-13 01:04:00,
2013-01-12 20:19:00,61.0,61.0,30.11,SSE,166,4.0,6.0,98,0.00,,,0.00,0,weatherlink.com 1.10,2013-01-13 01:19:00,
2013-01-12 20:34:00,60.8,60.0,30.10,South,169,4.0,5.0,98,0.00,,,0.00,0,weatherlink.com 1.10,2013-01-13 01:34:00,
2013-01-12 20:49:00,60.8,60.0,30.10,South,190,3.0,4.0,98,0.00,,,0.00,0,weatherlink.com 1.10,2013-01-13 01:49:00,
2013-01-12 21:04:00,60.9,60.0,30.10,SSE,155,4.0,6.0,98,0.00,,,0.00,0,weatherlink.com 1.10,2013-01-13 02:04:00,
2013-01-12 21:19:00,61.4,61.0,30.10,South,172,4.0,6.0,98,0.00,,,0.00,0,weatherlink.com 1.10,2013-01-13 02:19:00,
2013-01-12 21:34:00,60.4,60.0,30.11,South,178,1.0,4.0,97,0.00,,,0.00,0,weatherlink.com 1.10,2013-01-13 02:34:00,
2013-01-12 21:49:00,60.9,60.0,30.11,South,178,1.0,2.0,98,0.00,,,0.00,0,weatherlink.com 1.10,2013-01-13 02:49:00,
2013-01-12 22:04:00,61.5,61.0,30.11,South,178,0.0,0.0,98,0.00,,,0.00,0,weatherlink.com 1.10,2013-01-13 03:04:00,
2013-01-12 22:19:00,61.5,61.0,30.11,South,178,0.0,0.0,98,0.00,,,0.00,0,weatherlink.com 1.10,2013-01-13 03:19:00,
2013-01-12 22:34:00,61.5,61.0,30.11,South,178,0.0,0.0,98,0.00,,,0.00,0,weatherlink.com 1.10,2013-01-13 03:34:00,
2013-01-12 22:49:00,61.7,61.0,30.11,South,178,0.0,0.0,98,0.00,,,0.00,0,weatherlink.com 1.10,2013-01-13 03:49:00,
2013-01-12 23:04:00,60.9,60.0,30.12,South,178,0.0,0.0,97,0.00,,,0.00,0,weatherlink.com 1.10,2013-01-13 04:04:00,
2013-01-12 23:19:00,60.6,60.0,30.12,South,178,0.0,0.0,97,0.00,,,0.00,0,weatherlink.com 1.10,2013-01-13 04:19:00,
2013-01-12 23:34:00,61.1,61.0,30.12,South,178,0.0,0.0,98,0.00,,,0.00,0,weatherlink.com 1.10,2013-01-13 04:34:00,
2013-01-12 23:49:00,61.9,61.0,30.12,SSW,193,0.0,0.0,98,0.00,,,0.00,0,weatherlink.com 1.10,2013-01-13 04:49:00,